Nampa, ID

9:35 AM MDT on October 18, 2017 (GMT -0600)
Nampa

Weather History for KMAN - October, 2012

Change the Weather History Date:

Friday, October 5, 2012

  Actual Average (KBOI) Record (KBOI)
Temperature  
Mean Temperature 44 °F -  
Max Temperature 59 °F 69 °F 86 °F (1904)
Min Temperature 30 °F 40 °F 24 °F (1974)
Degree Days  
Heating Degree Days 20    
Moisture  
Dew Point 21 °F    
Average Humidity 41    
Maximum Humidity 75    
Minimum Humidity 19    
Precipitation  
Precipitation 0.00 in - - ()
Sea Level Pressure  
Sea Level Pressure 30.24 in    
Wind  
Wind Speed 4 mph (NW)    
Max Wind Speed 10 mph    
Max Gust Speed -    
Visibility 9 miles    
Events      
Averages and records for this station are not official NWS values.
T = Trace of Precipitation, MM = Missing Value Source: NWS Daily Summary

Daily Weather History Graph

Daily Weather History Graph

Search for Another Location

Airport or City:

Trip Planner

Search our weather history database for the weather conditions in past years. The results will help you decide how hot, cold, wet, or windy it might be!

Date:

Astronomy

Oct. 05, 2012 Rise Set
Actual Time 7:48 AM MDT 7:18 PM MDT
Civil Twilight 7:20 AM MDT 7:47 PM MDT
Nautical Twilight 6:47 AM MDT 8:20 PM MDT
Astronomical Twilight 6:13 AM MDT 8:53 PM MDT
Moon 10:37 PM MDT (10/5) 1:08 PM MDT (10/5)
Length of Visible Light 12h 27m
Length of Day
11h 30m
Waning Gibbous, 73% of the Moon is Illuminated
Oct 5
Waning Gibbous
Oct 8
Last Quarter
Oct 15
New
Oct 21
First Quarter
Oct 29
Full

Hourly Weather History & Observations

Time (MDT) Temp. Windchill Dew Point Humidity Pressure Visibility Wind Dir Wind Speed Gust Speed Precip Events Conditions
12:15 AM 42.8 °F 39.3 °F 23.0 °F 46% 30.18 in 10.0 mi West 5.8 mph - N/A   Partly Cloudy
12:35 AM 44.6 °F 40.7 °F 21.2 °F 39% 30.19 in 10.0 mi WNW 6.9 mph - N/A   Partly Cloudy
12:55 AM 44.6 °F 40.2 °F 21.2 °F 39% 30.19 in 10.0 mi WNW 8.1 mph - N/A   Scattered Clouds
1:15 AM 44.6 °F 40.7 °F 21.2 °F 39% 30.19 in 10.0 mi WNW 6.9 mph - N/A   Partly Cloudy
1:35 AM 42.8 °F 37.0 °F 21.2 °F 42% 30.20 in 10.0 mi WNW 10.4 mph - N/A   Partly Cloudy
1:55 AM 42.8 °F 37.0 °F 21.2 °F 42% 30.20 in 10.0 mi WNW 10.4 mph - N/A   Clear
2:15 AM 42.8 °F 38.0 °F 23.0 °F 46% 30.20 in 10.0 mi WNW 8.1 mph - N/A   Clear
2:35 AM 41.0 °F 36.4 °F 23.0 °F 49% 30.21 in 10.0 mi West 6.9 mph - N/A   Clear
2:55 AM 41.0 °F 35.8 °F 23.0 °F 49% 30.22 in 10.0 mi West 8.1 mph - N/A   Clear
3:15 AM 41.0 °F 35.8 °F 23.0 °F 49% 30.23 in 10.0 mi West 8.1 mph - N/A   Clear
3:35 AM 41.0 °F 36.4 °F 23.0 °F 49% 30.23 in 10.0 mi West 6.9 mph - N/A   Partly Cloudy
3:55 AM 41.0 °F - 23.0 °F 49% 30.23 in 10.0 mi Calm Calm - N/A   Clear
4:15 AM 39.2 °F - 23.0 °F 52% 30.23 in 9.0 mi Calm Calm - N/A   Clear
4:35 AM 39.2 °F 37.0 °F 23.0 °F 52% 30.23 in 9.0 mi West 3.5 mph - N/A   Clear
4:55 AM 39.2 °F 37.0 °F 23.0 °F 52% 30.24 in 6.0 mi NNW 3.5 mph - N/A   Clear
5:15 AM 39.2 °F 34.2 °F 23.0 °F 52% 30.24 in 10.0 mi NNW 6.9 mph - N/A   Clear
5:35 AM 39.2 °F 35.0 °F 23.0 °F 52% 30.24 in 10.0 mi NW 5.8 mph - N/A   Clear
5:55 AM 35.6 °F - 24.8 °F 65% 30.25 in 10.0 mi Calm Calm - N/A   Clear
6:35 AM 35.6 °F - 24.8 °F 65% 30.26 in 10.0 mi Calm Calm - N/A   Clear
6:55 AM 33.8 °F - 24.8 °F 70% 30.26 in 10.0 mi Calm Calm - N/A   Clear
7:15 AM 32.0 °F 28.7 °F 24.8 °F 75% 30.27 in 10.0 mi East 3.5 mph - N/A   Clear
7:35 AM 32.0 °F - 24.8 °F 75% 30.27 in 10.0 mi Calm Calm - N/A   Clear
7:55 AM 30.2 °F 26.7 °F 23.0 °F 75% 30.28 in 9.0 mi SSE 3.5 mph - N/A   Clear
8:15 AM 30.2 °F 26.7 °F 23.0 °F 75% 30.28 in 10.0 mi ESE 3.5 mph - N/A   Clear
8:35 AM 32.0 °F - 24.8 °F 75% 30.29 in 10.0 mi Calm Calm - N/A   Clear
8:55 AM 33.8 °F - 24.8 °F 70% 30.29 in 9.0 mi Calm Calm - N/A   Clear
9:15 AM 35.6 °F - 24.8 °F 65% 30.30 in 10.0 mi Calm Calm - N/A   Clear
9:35 AM 39.2 °F - 24.8 °F 56% 30.30 in 9.0 mi Calm Calm - N/A   Clear
9:55 AM 41.0 °F - 26.6 °F 57% 30.30 in 8.0 mi Calm Calm - N/A   Clear
10:15 AM 44.6 °F - 23.0 °F 43% 30.30 in 5.0 mi Calm Calm - N/A   Clear
10:35 AM 44.6 °F - 23.0 °F 43% 30.31 in 5.0 mi Calm Calm - N/A   Clear
10:55 AM 46.4 °F 45.2 °F 19.4 °F 34% 30.31 in 7.0 mi West 3.5 mph - N/A   Clear
11:15 AM 48.2 °F - 19.4 °F 32% 30.31 in 7.0 mi NW 3.5 mph - N/A   Clear
11:35 AM 48.2 °F - 19.4 °F 32% 30.30 in 8.0 mi Calm Calm - N/A   Clear
11:55 AM 50.0 °F - 19.4 °F 30% 30.30 in 5.0 mi Calm Calm - N/A   Clear
12:35 PM 50.0 °F - 19.4 °F 30% 30.29 in 5.0 mi Calm Calm - N/A   Clear
12:55 PM 53.6 °F - 19.4 °F 26% 30.29 in 7.0 mi Calm Calm - N/A   Clear
1:15 PM 53.6 °F - 19.4 °F 26% 30.29 in 5.0 mi Calm Calm - N/A   Clear
1:35 PM 55.4 °F - 19.4 °F 25% 30.28 in 10.0 mi West 5.8 mph - N/A   Clear
1:55 PM 57.2 °F - 19.4 °F 23% 30.28 in 9.0 mi WSW 4.6 mph - N/A   Clear
2:15 PM 57.2 °F - 19.4 °F 23% 30.26 in 8.0 mi Calm Calm - N/A   Clear
2:35 PM 57.2 °F - 19.4 °F 23% 30.26 in 9.0 mi SSW 3.5 mph - N/A   Clear
2:55 PM 57.2 °F - 19.4 °F 23% 30.25 in 8.0 mi Calm Calm - N/A   Clear
3:15 PM 57.2 °F - 17.6 °F 21% 30.24 in 8.0 mi NNE 5.8 mph - N/A   Clear
3:35 PM 59.0 °F - 17.6 °F 20% 30.23 in 10.0 mi NNW 4.6 mph - N/A   Clear
3:55 PM 59.0 °F - 17.6 °F 20% 30.23 in 10.0 mi NNW 4.6 mph - N/A   Clear
4:15 PM 59.0 °F - 15.8 °F 19% 30.22 in 10.0 mi North 6.9 mph - N/A   Clear
4:35 PM 59.0 °F - 17.6 °F 20% 30.21 in 10.0 mi NNW 5.8 mph - N/A   Clear
4:55 PM 59.0 °F - 15.8 °F 19% 30.21 in 10.0 mi NNW 5.8 mph - N/A   Clear
5:15 PM 59.0 °F - 15.8 °F 19% 30.20 in 10.0 mi WNW 8.1 mph - N/A   Clear
5:35 PM 59.0 °F - 15.8 °F 19% 30.20 in 10.0 mi NW 10.4 mph - N/A   Clear
5:55 PM 59.0 °F - 15.8 °F 19% 30.20 in 10.0 mi NNW 6.9 mph - N/A   Clear
6:15 PM 59.0 °F - 15.8 °F 19% 30.19 in 10.0 mi NNW 6.9 mph - N/A   Clear
6:35 PM 57.2 °F - 17.6 °F 21% 30.19 in 10.0 mi NNW 5.8 mph - N/A   Clear
6:55 PM 57.2 °F - 17.6 °F 21% 30.19 in 10.0 mi NNW 5.8 mph - N/A   Clear
7:15 PM 55.4 °F - 17.6 °F 23% 30.19 in 10.0 mi NNW 3.5 mph - N/A   Clear
7:35 PM 55.4 °F - 17.6 °F 23% 30.19 in 10.0 mi NNW 4.6 mph - N/A   Clear
7:55 PM 53.6 °F - 17.6 °F 24% 30.19 in 10.0 mi Calm Calm - N/A   Clear
8:15 PM 50.0 °F - 19.4 °F 30% 30.19 in 10.0 mi Calm Calm - N/A   Partly Cloudy
8:35 PM 48.2 °F - 19.4 °F 32% 30.19 in 10.0 mi WNW 3.5 mph - N/A   Partly Cloudy
8:55 PM 48.2 °F - 19.4 °F 32% 30.19 in 10.0 mi Calm Calm - N/A   Clear
9:35 PM 44.6 °F - 23.0 °F 43% 30.20 in 10.0 mi Calm Calm - N/A   Mostly Cloudy
9:55 PM 42.8 °F - 23.0 °F 46% 30.20 in 10.0 mi Calm Calm - N/A   Scattered Clouds
10:15 PM 44.6 °F 43.1 °F 21.2 °F 39% 30.20 in 10.0 mi NW 3.5 mph - N/A   Mostly Cloudy
10:35 PM 46.4 °F 45.2 °F 19.4 °F 34% 30.20 in 10.0 mi NW 3.5 mph - N/A   Scattered Clouds
10:55 PM 37.4 °F - 24.8 °F 60% 30.20 in 10.0 mi Calm Calm - N/A   Scattered Clouds
11:15 PM 37.4 °F - 24.8 °F 60% 30.21 in 10.0 mi Calm Calm - N/A   Scattered Clouds
11:35 PM 37.4 °F - 24.8 °F 60% 30.21 in 10.0 mi Calm Calm - N/A   Mostly Cloudy
11:55 PM 33.8 °F - 24.8 °F 70% 30.21 in 10.0 mi Calm Calm - N/A   Mostly Cloudy